Weather observations for the past three days for
Twentynine Palms SELF Airport
Imperial (Metric)
Date Time (pdt) Wind (mph) Vis. (mi.) Weather Sky Cond. Temperature (ºF) Relative Humidity Wind Chill (°F) Heat Index (°F) Pressure Precipitation (in)
Air Dwpt 6 hour altimeter (in) sea level (mb) 1 hr 3 hr 6 hr
Max. Min.
01 13:54 SW 21 G 28 10.00 Fair and Breezy CLR 95 33.1 11% 90 29.98 1011.3
01 11:54 Vrbl 6 10.00 Fair CLR 91.9 33.1 12% 88 30.02 1012.6
01 10:54 Vrbl 3 10.00 Fair CLR 87.1 33.1 88 66 14% 84 30.03 1013.2
01 09:54 E 3 10.00 Fair CLR 84 32 15% 81 30.04 1013.3
01 07:54 NW 5 10.00 Fair CLR 72 34 25% 30.03 1013.3
01 06:54 Vrbl 5 10.00 Fair CLR 71.1 30 22% 30.01 1012.5
01 05:54 NW 5 10.00 Fair CLR 66.9 34 30% 30 1012.1
01 04:54 Calm 10.00 Fair CLR 69.1 33.1 84 68 26% 29.99 1011.9
01 03:54 Vrbl 3 10.00 Fair CLR 73 36 26% 29.99 1011.8
01 02:54 Calm 10.00 Fair CLR 71.1 36 28% 29.99 1011.7
01 01:54 NE 7 10.00 Fair CLR 75.9 37 25% 77 29.98 1011.4
01 00:54 S 13 10.00 Fair CLR 79 36 21% 78 29.98 1011.3
31 23:54 W 6 10.00 Fair CLR 81 37 21% 79 29.98 1011.2
31 22:54 SW 16 G 22 10.00 Fair CLR 82.9 39 97 82.9 21% 81 29.97 1010.9
31 21:54 E 6 10.00 Fair CLR 84 43 24% 81 29.97 1011.0
31 20:54 W 8 G 20 10.00 Fair CLR 84.9 45 25% 82 29.95 1010.5
31 19:54 SW 21 G 31 10.00 Fair and Breezy CLR 87.1 46.9 25% 84 29.91 1009.3
31 18:54 SW 17 G 30 10.00 Fair CLR 91 44.1 20% 87 29.9 1008.6
31 17:54 SW 25 G 36 10.00 Fair and Breezy CLR 93.9 41 16% 90 29.89 1008.2
31 15:54 S 15 G 32 10.00 Fair CLR 97 39.9 14% 92 29.9 1008.3
31 13:54 SE 9 G 20 10.00 Fair CLR 98.1 41 14% 94 29.94 1009.7
31 12:54 E 8 G 22 10.00 Fair CLR 96.1 42.1 15% 92 29.96 1010.5
31 11:54 SE 8 10.00 Fair CLR 93 42.1 17% 89 29.99 1011.4
31 10:54 E 8 10.00 Fair CLR 91 41 91 70 17% 87 29.99 1011.6
31 09:54 Calm 10.00 Fair CLR 87.1 39.9 19% 84 30 1011.7
31 08:54 Calm 10.00 Fair CLR 82 37.9 21% 80 29.99 1011.7
31 07:54 NW 3 9.00 Fair CLR 75.9 37.9 25% 77 29.99 1011.6
31 06:54 N 3 10.00 Fair CLR 72 37.9 29% 29.97 1011.0
31 05:54 Calm 10.00 Fair CLR 72 37.9 29% 29.95 1010.2
31 04:54 Calm 10.00 Fair CLR 75.9 39 84.9 75 26% 77 29.93 1009.6
31 03:54 W 10 10.00 Fair CLR 79 39.9 25% 78 29.93 1009.4
31 02:54 W 8 10.00 Fair CLR 79 41 26% 78 29.93 1009.4
31 00:54 W 12 10.00 Fair CLR 82 43 25% 80 29.94 1009.7
30 23:54 Calm 10.00 Fair CLR 82.9 45 26% 81 29.93 1009.5
30 20:54 SW 13 10.00 Fair CLR 89.1 48.9 25% 86 29.9 1008.4
30 19:54 SW 18 10.00 Fair CLR 91.9 48.9 23% 89 29.87 1007.6
30 18:54 SW 22 G 29 10.00 Fair and Breezy CLR 95 46 19% 91 29.85 1006.9
30 17:54 SW 23 10.00 Fair and Breezy CLR 98.1 45 16% 94 29.86 1006.9
30 16:54 S 14 10.00 Fair CLR 100 45 102 93 15% 96 29.87 1007.1
30 15:54 S 14 G 24 10.00 Fair CLR 100 45 15% 96 29.88 1007.6
30 13:54 S 7 G 20 10.00 Fair CLR 100.9 46.9 16% 97 29.93 1009.2
30 12:54 Vrbl 3 10.00 Fair CLR 97 46.9 18% 93 29.96 1010.1
30 10:54 Calm 10.00 Fair CLR 93 46.9 93 79 21% 89 29.99 1011.5
30 09:54 NE 5 10.00 Fair CLR 91 48.9 24% 88 29.99 1011.4
30 08:54 N 5 10.00 Fair CLR 86 50 29% 84 29.99 1011.6
30 07:54 NW 8 9.00 Fair CLR 84 50 31% 82 30 1011.6
30 06:54 NW 9 10.00 Fair CLR 79 48.9 35% 79 29.98 1011.2
30 05:54 W 6 10.00 Fair CLR 80.1 48.9 34% 79 29.97 1010.5
30 03:54 NW 6 10.00 Fair CLR 81 52 37% 80 29.95 1009.7
30 02:54 W 9 10.00 Fair CLR 82 53.1 37% 81 29.93 1009.0
30 01:54 W 8 10.00 Fair CLR 84 53.1 34% 83 29.93 1009.0
30 00:54 W 12 10.00 Fair CLR 87.1 51.1 29% 85 29.94 1009.3
29 21:54 W 9 10.00 Fair CLR 90 51.1 26% 87 29.93 1009.1
29 20:54 W 12 10.00 Fair CLR 93 52 25% 90 29.91 1008.4
29 19:54 SW 16 G 21 10.00 Fair CLR 95 52 23% 92 29.88 1007.6
29 17:54 SW 15 G 26 10.00 Fair CLR 100.9 48.9 17% 98 29.87 1007.3
29 16:54 SW 21 G 33 10.00 Fair and Breezy CLR 102 46.9 106 97 15% 98 29.86 1006.9
29 15:54 SW 24 G 32 10.00 Fair and Breezy CLR 105.1 46.9 14% 101 29.87 1007.1
Date Time (pdt) Wind (mph) Vis. (mi.) Weather Sky Cond. Air Dwpt Max. Min. Relative Humidity Wind Chill (°F) Heat Index (°F) altimeter (in) sea level (mb) 1 hr 3 hr 6 hr
6 hour
Temperature (ºF) Pressure Precipitation (in)